Location: Plum Point
(34.9795°N, 89.9548°W)
Time: 12:53:28
(UTC+00:00)

ISS - Visible Passes

Search period start: 11 October 2024 00:00
Search period end: 21 October 2024 00:00
Orbit: 411 x 424 km, 51.6° (Epoch: 11 October)

Date Brightness Start Highest point End Pass type
(mag) Time Alt. Az. Time Alt. Az. Time Alt. Az.
13 Oct -0.4 11:19:57 10° SE 11:20:47 11° SE 11:21:37 10° ESE visible
15 Oct -2.1 11:16:54 10° SSW 11:19:57 35° SE 11:23:00 10° ENE visible
16 Oct -1.1 10:28:51 10° S 10:31:13 18° SE 10:33:34 10° E visible
17 Oct -3.8 11:15:45 13° WSW 11:18:38 65° NW 11:21:56 10° NE visible
18 Oct -3.5 10:29:23 61° SE 10:29:27 61° SE 10:32:44 10° NE visible
19 Oct -0.4 09:42:40 13° ENE 09:42:40 13° ENE 09:43:08 10° ENE visible
19 Oct -2.4 11:15:33 19° WNW 11:16:51 23° NNW 11:19:36 10° NNE visible
20 Oct -2.2 10:28:30 27° NNE 10:28:30 27° NNE 10:30:23 10° NE visible
